4XDAR LLHZ-LLHA

Flight info

Callsign 4XDAR
Flight time N/A
Altitude 6000
Route LLHZ BENQO1 NAT J15 ATLIT IFR/VFR HOTRM DAROM BGLIM LLHA
Aircraft SR22/L-IFR/5275

Departure

Time 2026-04-25 20:35
Airport Herzliya Airport (LLHZ)

Arrival

Time N/A
Airport Uri Michaeli Haifa International Airport (LLHA)
Time Latitude Longitude Altitude Speed Heading
2026-04-25 20:29 32.17904 34.83654 118 ft 0 kts 75°
2026-04-25 20:33 32.17904 34.83655 117 ft 0 kts 75°
2026-04-25 20:33 32.17924 34.83677 118 ft 7 kts 36°
2026-04-25 20:33 32.17909 34.83746 122 ft 16 kts 109°
2026-04-25 20:33 32.17896 34.83790 124 ft 18 kts 109°
2026-04-25 20:34 32.17914 34.83855 127 ft 0 kts 285°
2026-04-25 20:34 32.17954 34.83712 121 ft 47 kts 289°
2026-04-25 20:34 32.18129 34.83097 172 ft 100 kts 286°
2026-04-25 20:34 32.18555 34.82593 637 ft 92 kts
2026-04-25 20:35 32.19183 34.82844 954 ft 99 kts 20°
2026-04-25 20:35 32.19859 34.83141 1191 ft 114 kts
2026-04-25 20:35 32.20529 34.82637 1233 ft 131 kts 298°
2026-04-25 20:35 32.20919 34.81623 1335 ft 136 kts 290°
2026-04-25 20:36 32.21092 34.80547 1679 ft 128 kts 277°
2026-04-25 20:36 32.21194 34.79532 2000 ft 128 kts 277°
2026-04-25 20:36 32.21303 34.78451 2104 ft 135 kts 277°
2026-04-25 20:36 32.21453 34.77335 2151 ft 144 kts 285°
2026-04-25 20:37 32.21884 34.76239 2160 ft 150 kts 300°
2026-04-25 20:37 32.22508 34.75227 2133 ft 155 kts 316°
2026-04-25 20:37 32.23428 34.74550 2097 ft 159 kts 338°
2026-04-25 20:37 32.24434 34.74023 2115 ft 158 kts 334°
2026-04-25 20:38 32.25362 34.73464 2378 ft 144 kts 334°
2026-04-25 20:38 32.26316 34.73005 2346 ft 153 kts 338°
2026-04-25 20:38 32.27322 34.72518 2247 ft 161 kts 336°
2026-04-25 20:38 32.28379 34.71953 2033 ft 171 kts 335°
2026-04-25 20:39 32.29086 34.71551 2001 ft 169 kts 334°